{"data":{"norad_id":68075,"intl_designator":"2026-042G","name":"STARLINK-37026","alt_names":[],"object_type":"PAYLOAD","status":"ACTIVE","operator":null,"country":"US","launch_date":"2026-03-04","launch_site_code":"AFETR","launch_vehicle":null,"mission":null,"orbit_class":"UNKNOWN","rcs_meters":null,"size_class":null,"mass_kg":null,"dimensions":null,"purposes":["comms"],"wikipedia_slug":null,"has_3d_model":false,"image_url":null,"decayed_at":null,"tle_current":{"epoch":"2026-05-25T03:08:25.393344Z","epoch_age_seconds":63187,"freshness":"FRESH","line1":"1 68075U 26042G   26145.13084946  .00019072  00000+0  57402-3 0  9992","line2":"2 68075  53.1581 183.3175 0001426 101.3202 258.7960 15.34408066 14011","mean_motion":15.34408066,"eccentricity":0.0001426,"inclination_deg":53.1581,"raan_deg":183.3175,"arg_perigee_deg":101.3202,"mean_anomaly_deg":258.796,"bstar":0.00057402,"rev_number":1401,"period_min":93.847264747108,"perigee_km":461.7037660607,"apogee_km":463.65476685989,"semimajor_km":6840.8162664603,"source":"CELESTRAK","updated_at":"2026-05-25T13:38:21.818346Z"}}}